This is the latest recevied weather packets stored in our database for station/object W6MAF. If no packets are shown the sender has not sent any weather packets the latest 10 day(s).
| Time | Temp. | Humidity | Pressure | Rain* | Wind** | Luminosity | Snow |
|---|---|---|---|---|---|---|---|
| 1777605203 | 13.33° C | 63% | - | 0 mm | 5.36 m/s, 264° | - | - |
| 1777604902 | 13.89° C | 62% | - | 0 mm | 6.71 m/s, 242° | - | - |
| 1777604604 | 13.89° C | 61% | - | 0 mm | 6.71 m/s, 248° | - | - |
| 1777604306 | 13.89° C | 60% | - | 0 mm | 7.15 m/s, 238° | - | - |
| 1777604009 | 13.89° C | 58% | - | 0 mm | 7.15 m/s, 231° | - | - |
| 1777603711 | 13.89° C | 56% | - | 0 mm | 7.15 m/s, 222° | - | - |
| 1777603413 | 14.44° C | 55% | - | 0 mm | 7.15 m/s, 193° | - | - |
| 1777603112 | 14.44° C | 53% | - | 0 mm | 5.81 m/s, 221° | - | - |
| 1777602815 | 15° C | 50% | - | 0 mm | 5.36 m/s, 221° | - | - |
| 1777602517 | 15° C | 49% | - | 0 mm | 5.36 m/s, 232° | - | - |
| 1777602219 | 15.56° C | 48% | - | 0 mm | 4.92 m/s, 205° | - | - |
| 1777601976 | 15.56° C | 46% | - | 0 mm | 4.02 m/s, 245° | - | - |
| 1777601922 | 15.56° C | 46% | - | 0 mm | 4.02 m/s, 245° | - | - |
| 1777601624 | 16.11° C | 45% | - | 0 mm | 6.71 m/s, 228° | - | - |
| 1777601323 | 16.11° C | 43% | - | 0 mm | 5.81 m/s, 228° | - | - |
| 1777601025 | 16.67° C | 42% | - | 0 mm | 4.92 m/s, 229° | - | - |
| 1777600728 | 17.22° C | 40% | - | 0 mm | 4.02 m/s, 210° | - | - |
| 1777600430 | 17.78° C | 38% | - | 0 mm | 6.26 m/s, 215° | - | - |
| 1777600132 | 17.78° C | 36% | - | 0 mm | 5.36 m/s, 207° | - | - |
| 1777599834 | 18.33° C | 35% | - | 0 mm | 4.47 m/s, 250° | - | - |
| 1777599534 | 18.33° C | 34% | - | 0 mm | 4.02 m/s, 191° | - | - |
| 1777599236 | 18.89° C | 33% | - | 0 mm | 5.36 m/s, 218° | - | - |
| 1777598938 | 19.44° C | 31% | - | 0 mm | 3.58 m/s, 222° | - | - |
| 1777598640 | 19.44° C | 30% | - | 0 mm | 4.47 m/s, 236° | - | - |
| 1777598343 | 20° C | 29% | - | 0 mm | 0.89 m/s, 245° | - | - |
* Rain latest hour (hover to see other rain measurements)
** Current wind speed in m/s (hover to see current wind gust speed)